Overview Statistics Trail Chart Weather Telemetry Raw packets
 

This is the latest recevied weather packets stored in our database for station/object KD7AWQ. If no packets are shown the sender has not sent any weather packets the latest 10 day(s).

<< 86 87 88 89 90 91 92 >>
Time Temp. Humidity Pressure Rain* Wind** Luminosity Snow
1787805695 31.67° C 19% 1188.6 hPa 0 mm - 0 W/m² -
1787805391 32.22° C 19% 1188.6 hPa 0 mm - 0 W/m² -
1787805090 32.22° C 19% 1188.4 hPa 0 mm - 0 W/m² -
1787804785 31.67° C 19% 1188.8 hPa 0 mm - 0 W/m² -
1787804480 31.67° C 19% 1188.4 hPa 0 mm - 0 W/m² -
1787804180 31.67° C 19% 1188.8 hPa 0 mm - 0 W/m² -
1787803879 31.67° C 19% 1188.6 hPa 0 mm - 0 W/m² -
1787803574 30.56° C 20% 1188.6 hPa 0 mm - 0 W/m² -
1787803272 30.56° C 20% 1188.6 hPa 0 mm - 0 W/m² -
1787802968 31.11° C 20% 1188.4 hPa 0 mm - 0 W/m² -
1787802667 31.11° C 20% 1188.3 hPa 0 mm - 0 W/m² -
1787802366 31.11° C 20% 1188.4 hPa 0 mm - 0 W/m² -
1787802061 31.11° C 21% 1188.4 hPa 0 mm - 0 W/m² -
1787801756 31.11° C 21% 1188.6 hPa 0 mm - 0 W/m² -
1787801452 31.11° C 21% 1188.2 hPa 0 mm - 0 W/m² -
1787801145 31.11° C 21% 1188.6 hPa 0 mm - 0 W/m² -
1787800845 31.67° C 20% 1188.3 hPa 0 mm - 0 W/m² -
1787800540 31.67° C 20% 1188.3 hPa 0 mm - 0 W/m² -
1787800235 31.67° C 20% 1188.2 hPa 0 mm - 0 W/m² -
1787799934 31.67° C 20% 1188.3 hPa 0 mm - 0 W/m² -
1787799633 32.22° C 20% 1188.3 hPa 0 mm - 0 W/m² -
1787799331 32.22° C 20% 1188.2 hPa 0 mm - 0 W/m² -
1787799030 32.22° C 20% 1188 hPa 0 mm - 0 W/m² -
1787798729 32.78° C 20% 1188.1 hPa 0 mm - 0 W/m² -
1787798425 32.78° C 19% 1187.9 hPa 0 mm - 0 W/m² -

* Rain latest hour (hover to see other rain measurements)
** Current wind speed in m/s (hover to see current wind gust speed)